TIANZHOU-3

Last updated on Wed Jul 27 2022 00:02:06 GMT+0000 (Coordinated Universal Time)

1 49222U 21085A 22207.55572046 .00008008 00000+0 94514-4 0 9994 2 49222 41.4729 339.2028 0002904 200.4191 267.7514 15.61542623 48321
UTC large
Height (km)
Speed (km/s)
/
Latitude / Longitude
Inclination (degrees)
Orbital Period (minutes)
Azimuth
Elevation
Range (km)
Doppler Factor

Next 0 passes for location: London (51.5072 / 0.1276)

Sorry there are no passes over London.
TIANZHOU-3